Weather History for Philip, SD

Change the Weather History Date:

Tuesday, November 20, 2012

  Actual Average Record
Temperature  
Mean Temperature 49 °F 32 °F  
Max Temperature 68 °F 45 °F 72 °F (1962)
Min Temperature 29 °F 19 °F -10 °F (2011)
Degree Days  
Heating Degree Days 16 33  
Month to date heating degree days 526 570  
Since 1 July heating degree days 1153 1273  
Cooling Degree Days 0 0  
Month to date cooling degree days 0 0  
Year to date cooling degree days 1202 818  
Moisture  
Dew Point 29 °F    
Average Humidity 57    
Maximum Humidity 85    
Minimum Humidity 28    
Precipitation  
Precipitation 0.00 in 0.02 in 0.05 in (1953)
Month to date precipitation 0.13 0.48  
Year to date precipitation 6.93 16.78  
Sea Level Pressure  
Sea Level Pressure 29.99 in    
Wind  
Wind Speed 7 mph (WSW)    
Max Wind Speed 25 mph    
Max Gust Speed 32 mph    
Visibility 10 miles    
Events      
T = Trace of Precipitation, MM = Missing Value Source: NWS Daily Summary

Daily Weather History Graph

Daily Weather History Graph

Search for Another Location

Airport:

Trip Planner

Search our weather history database for the weather conditions in past years. The results will help you decide how hot, cold, wet, or windy it might be!

Date:

Astronomy

Nov. 20, 2012 Rise Set
Actual Time 6:48 AM MST 4:15 PM MST
Civil Twilight 6:17 AM MST 4:46 PM MST
Nautical Twilight 5:41 AM MST 5:22 PM MST
Astronomical Twilight 5:07 AM MST 5:56 PM MST
Moon 12:16 PM MST (11/20) 11:58 PM MST (11/20)
Length of Visible Light 10h 29m
Length of Day
9h 26m
First Quarter, 52% of the Moon is Illuminated
Nov 20
First Quarter
Nov 28
Full
Dec 6
Last Quarter
Dec 13
New
Dec 19
First Quarter

Hourly Weather History & Observations

Time (MST) Temp. Windchill Dew Point Humidity Pressure Visibility Wind Dir Wind Speed Gust Speed Precip Events Conditions
12:55 AM 30.9 °F 25.2 °F 25.0 °F 79% 30.10 in 10.0 mi East 5.8 mph - N/A   Clear
1:55 AM 32.0 °F 24.8 °F 25.0 °F 75% 30.09 in 10.0 mi ESE 8.1 mph - N/A   Clear
2:55 AM 36.0 °F - 25.0 °F 64% 30.06 in 10.0 mi Calm Calm - N/A   Clear
3:55 AM 36.0 °F 30.3 °F 27.0 °F 70% 30.06 in 10.0 mi South 6.9 mph - N/A   Clear
4:55 AM 33.1 °F - 25.0 °F 72% 30.05 in 10.0 mi Calm Calm - N/A   Clear
5:55 AM 37.9 °F 35.5 °F 28.0 °F 68% 30.04 in 10.0 mi SW 3.5 mph - N/A   Clear
6:55 AM 32.0 °F 26.4 °F 26.1 °F 79% 30.04 in 10.0 mi West 5.8 mph - N/A   Clear
7:55 AM 43.0 °F 39.5 °F 32.0 °F 65% 30.03 in 10.0 mi WSW 5.8 mph - N/A   Clear
8:55 AM 48.9 °F - 33.1 °F 54% 30.02 in 10.0 mi WSW 10.4 mph - N/A   Clear
9:55 AM 60.1 °F - 34.0 °F 38% 29.99 in 10.0 mi SW 21.9 mph 27.6 mph N/A   Clear
10:55 AM 64.0 °F - 33.1 °F 31% 29.97 in 10.0 mi WSW 19.6 mph 26.5 mph N/A   Clear
11:55 AM 64.9 °F - 33.1 °F 31% 29.94 in 10.0 mi WSW 17.3 mph - N/A   Clear
12:55 PM 66.9 °F - 33.1 °F 28% 29.94 in 10.0 mi West 15.0 mph - N/A   Clear
1:55 PM 66.9 °F - 32.0 °F 27% 29.93 in 10.0 mi WSW 10.4 mph - N/A   Clear
2:55 PM 64.0 °F - 32.0 °F 30% 29.93 in 10.0 mi WSW 6.9 mph - N/A   Clear
3:55 PM 59.0 °F - 32.0 °F 36% 29.95 in 10.0 mi Calm Calm - N/A   Clear
4:55 PM 57.9 °F - 30.9 °F 36% 29.96 in 10.0 mi West 4.6 mph - N/A   Clear
5:55 PM 48.9 °F - 30.9 °F 50% 29.96 in 10.0 mi Calm Calm - N/A   Clear
6:55 PM 45.0 °F - 30.9 °F 58% 29.98 in 10.0 mi Calm Calm - N/A   Clear
7:55 PM 37.9 °F 33.5 °F 28.9 °F 70% 29.97 in 10.0 mi West 5.8 mph - N/A   Clear
8:55 PM 36.0 °F 30.3 °F 28.0 °F 73% 29.96 in 10.0 mi West 6.9 mph - N/A   Clear
9:55 PM 30.9 °F - 26.1 °F 82% 29.94 in 10.0 mi Calm Calm - N/A   Clear
10:55 PM 33.1 °F 27.7 °F 27.0 °F 78% 29.92 in 10.0 mi West 5.8 mph - N/A   Clear
11:55 PM 30.9 °F 26.2 °F 26.1 °F 82% 29.91 in 10.0 mi West 4.6 mph - N/A   Clear